Location: ???????????
(55.5758°N, 38.4970°E)
Time: 16:54:06
(UTC+00:00)

Sich 1 Rocket - Pass Details

Date: 15 November 2025
Orbit: 611 x 646 km, 82.5° (Epoch: 14 December)

Event Time Altitude Azimuth Distance (km) Brightness Sun altitude
Rises 02:49:41 0° 349° (NNW) 2,973 6.9 -18.1°
Reaches altitude 10° 02:51:59 10° 352° (N) 2,055 6.1 -17.8°
Maximum altitude 02:56:32 67° 75° (ENE) 699 4.0 -17.2°
Drops below altitude 10° 03:01:00 10° 159° (SSE) 2,022 6.6 -16.5°
Sets 03:03:14 0° 162° (SSE) 2,920 7.4 -16.2°
